Location: Niedergestelen
(46.3129°N, 7.7822°E)
Time: 16:31:29
(UTC+00:00)

USA 267 - Pass Details

Date: 01 December 2020
Orbit: 1100 x 1107 km, 123.0° (Epoch: 18 January)

Event Time Altitude Azimuth Distance (km) Brightness Sun altitude
Exits shadow 17:34:03 28° 77° (ENE) 1,927 3.9 -18.3°
Maximum altitude 17:37:09 48° 21° (NNE) 1,416 3.6 -18.9°
Drops below altitude 10° 17:43:22 10° 310° (NW) 2,969 6.0 -19.9°
Sets 17:45:56 0° 305° (NW) 3,929 6.8 -20.3°
